TimeEDT,TemperatureF,Dew PointF,Humidity,Sea Level PressureIn,VisibilityMPH,Wind Direction,Wind SpeedMPH,Gust SpeedMPH,PrecipitationIn,Events,Conditions,WindDirDegrees,DateUTC
12:53 AM,78.1,77.0,96,30.06,8.0,East,6.9,-,N/A,,Clear,90,2013-08-22 04:53:00
1:53 AM,78.1,77.0,96,30.04,8.0,NE,4.6,-,N/A,,Clear,50,2013-08-22 05:53:00
2:53 AM,78.1,77.0,96,30.03,8.0,East,5.8,-,N/A,,Clear,80,2013-08-22 06:53:00
3:53 AM,78.1,77.0,96,30.00,9.0,East,5.8,-,N/A,,Clear,100,2013-08-22 07:53:00
4:53 AM,77.0,75.9,96,30.00,9.0,SE,4.6,-,N/A,,Clear,130,2013-08-22 08:53:00
5:40 AM,77.0,75.2,94,30.01,9.0,Calm,Calm,-,N/A,,Mostly Cloudy,0,2013-08-22 09:40:00
5:53 AM,77.0,75.9,96,30.02,9.0,ENE,5.8,-,N/A,,Scattered Clouds,70,2013-08-22 09:53:00
6:53 AM,75.9,75.0,97,30.01,9.0,East,3.5,-,N/A,,Clear,80,2013-08-22 10:53:00
7:53 AM,77.0,75.9,96,30.02,8.0,ENE,5.8,-,N/A,,Clear,60,2013-08-22 11:53:00
8:53 AM,80.1,77.0,90,30.04,8.0,ENE,4.6,-,N/A,,Clear,60,2013-08-22 12:53:00
9:53 AM,84.9,78.1,80,30.03,8.0,East,9.2,-,N/A,,Clear,100,2013-08-22 13:53:00
10:53 AM,87.1,77.0,72,30.04,9.0,East,13.8,-,N/A,,Scattered Clouds,90,2013-08-22 14:53:00
11:53 AM,89.1,75.9,65,30.04,10.0,ESE,9.2,-,N/A,,Partly Cloudy,110,2013-08-22 15:53:00
12:53 PM,91.0,75.9,61,30.01,10.0,SE,10.4,17.3,N/A,,Scattered Clouds,140,2013-08-22 16:53:00
1:53 PM,91.0,75.0,59,30.00,10.0,SE,11.5,-,N/A,,Scattered Clouds,140,2013-08-22 17:53:00
2:53 PM,87.1,75.9,69,29.99,10.0,SSW,6.9,-,N/A,,Scattered Clouds,200,2013-08-22 18:53:00
3:53 PM,82.9,78.1,85,29.96,6.0,SW,4.6,-,0.01,Rain,Light Rain,230,2013-08-22 19:53:00
4:53 PM,86.0,77.0,74,29.94,10.0,Calm,Calm,-,0.00,,Clear,0,2013-08-22 20:53:00
5:53 PM,82.0,73.0,74,29.96,10.0,North,10.4,-,N/A,Thunderstorm,Thunderstorm,10,2013-08-22 21:53:00
6:24 PM,78.8,71.6,78,29.96,10.0,North,5.8,-,N/A,,Clear,10,2013-08-22 22:24:00
6:53 PM,78.1,73.0,84,29.96,10.0,NNE,8.1,-,N/A,,Partly Cloudy,30,2013-08-22 22:53:00
7:53 PM,78.1,75.0,90,29.97,10.0,NNE,10.4,-,N/A,,Overcast,30,2013-08-22 23:53:00
8:28 PM,77.0,75.2,94,29.99,3.0,NE,9.2,-,0.07,Rain-Thunderstorm,Rain,50,2013-08-23 00:28:00
8:34 PM,77.0,75.2,94,29.99,1.8,Variable,3.5,-,0.20,Rain-Thunderstorm,Rain,0,2013-08-23 00:34:00
8:43 PM,75.2,75.2,100,29.99,2.5,NNE,8.1,-,0.25,Rain,Heavy Rain,20,2013-08-23 00:43:00
8:51 PM,75.2,75.2,100,29.99,4.0,NNE,8.1,-,0.26,Rain,Rain,30,2013-08-23 00:51:00
8:53 PM,75.9,75.9,100,29.99,5.0,NNE,6.9,-,0.26,Rain,Light Rain,30,2013-08-23 00:53:00
9:53 PM,77.0,75.9,96,30.00,9.0,NE,8.1,-,0.00,,Mostly Cloudy,50,2013-08-23 01:53:00
10:53 PM,77.0,73.9,90,30.02,10.0,NNE,3.5,-,0.00,,Clear,20,2013-08-23 02:53:00
11:53 PM,75.9,73.9,94,30.02,10.0,ENE,3.5,-,N/A,,Clear,60,2013-08-23 03:53:00